Retour au catalogue

COSMOS 872

ActifMilitaireLEO
NORAD 9589·PAYLOAD·🇷🇺 Russia

Lancé Dec 7, 1976 depuis Plesetsk Cosmodrome

Loading…

Prochains Passages (prochaines 24 heures)

TLE

FraisSource: Space-Track

Époque: Sep 14, 2026, 15:37 UTC

1 09589U 76118B   26257.65087108 -.00000014  00000-0  14017-4 0  9994
2 09589  74.0304 204.0674 0040961  73.6966  98.3336 12.58111336285751

Suivez COSMOS 872 en temps réel avec AllMySat

Download on the App Store